GW0019 Weather Reports


time (UTC)temp
F
wind
direction
speed
knots
gust
knots
rain 1hr
in
rain 24hr
in
rain mn
in
humidity
%
barometer
mb
20240614131905 74 23 0.0 6.1 0.00 0.00 0.00 74 1018.9
20240614131404 74 79 2.6 3.5 0.00 0.00 0.00 74 1019.2
20240614130902 75 266 6.1 7.8 0.00 0.00 0.00 74 1018.7
20240614130400 75 266 6.1 7.8 0.00 0.00 0.00 74 1017.9
20240614125859 75 188 0.0 6.1 0.00 0.00 0.00 74 1017.3
20240614125356 75 249 5.2 7.8 0.00 0.00 0.00 74 1016.9
20240614124837 74 234 2.6 4.3 0.00 0.00 0.00 74 1016.9
20240614124337 74 210 1.7 2.6 0.00 0.00 0.00 74 1016.8
20240614123835 73 239 1.7 2.6 0.00 0.00 0.00 74 1016.4
20240614123334 73 239 1.7 2.6 0.00 0.00 0.00 74 1016.4
20240614122833 74 222 2.6 3.5 0.00 0.00 0.00 74 1016.3
20240614122330 74 259 0.0 1.7 0.00 0.00 0.00 74 1016.2
20240614121829 74 259 0.0 1.7 0.00 0.00 0.00 74 1016.5
20240614121329 74 259 0.0 1.7 0.00 0.00 0.00 74 1016.4
20240614120828 74 259 0.0 1.7 0.00 0.00 0.00 74 1016.6
20240614120326 74 253 1.7 1.7 0.00 0.00 0.00 74 1016.4
20240614115825 76 264 5.2 7.0 0.00 0.00 0.00 74 1016.6
20240614115323 71 195 0.9 4.3 0.00 0.00 0.00 74 1016.3
20240614114823 72 24 4.3 4.3 0.00 0.00 0.00 74 1016.5
20240614114321 72 230 5.2 7.0 0.00 0.00 0.00 74 1015.8
20240614113819 71 228 5.2 6.1 0.00 0.00 0.00 74 1016.4
20240614113319 71 218 5.2 5.2 0.00 0.00 0.00 74 1016.6
20240614112818 71 209 2.6 2.6 0.00 0.00 0.00 74 1016.9
20240614112317 71 209 2.6 2.6 0.00 0.00 0.00 74 1017.2
20240614111816 71 152 3.5 4.3 0.00 0.00 0.00 74 1017.2
20240614111315 71 252 4.3 5.2 0.00 0.00 0.00 74 1017.3
20240614110813 71 252 4.3 5.2 0.00 0.00 0.00 74 1017.7
20240614110312 71 330 1.7 3.5 0.00 0.00 0.00 74 1018.0
20240614105811 71 336 5.2 5.2 0.00 0.00 0.00 74 1017.9
20240614105309 71 6 7.0 15.6 0.00 0.00 0.00 74 1018.9
20240614104808 72 226 3.5 13.0 0.00 0.00 0.00 74 1017.7
20240614104306 73 243 11.3 15.6 0.00 0.00 0.00 74 1018.7
20240614103805 74 257 13.9 16.5 0.00 0.00 0.00 74 1019.5
20240614103303 75 290 4.3 7.0 0.00 0.00 0.00 74 1019.7
20240614102802 75 302 9.6 9.6 0.00 0.00 0.00 74 1020.3
20240614102300 75 75 0.0 11.3 0.00 0.00 0.00 74 1020.4
20240614101758 75 283 5.2 18.2 0.00 0.00 0.00 74 1020.8
20240614101257 74 330 5.2 11.3 0.00 0.00 0.00 74 1020.8
20240614100756 74 354 4.3 9.6 0.00 0.00 0.00 74 1020.9
20240614100255 74 14 4.3 8.7 0.00 0.00 0.00 74 1021.1
20240614095754 74 338 9.6 9.6 0.00 0.00 0.00 74 1021.3
20240614095252 75 0 6.1 10.4 0.00 0.00 0.00 74 1021.1
20240614094753 75 317 13.0 15.6 0.00 0.00 0.00 74 1021.0
20240614094251 75 258 2.6 13.0 0.00 0.00 0.00 74 1021.3
20240614093751 75 326 4.3 7.8 0.00 0.00 0.00 74 1021.1
20240614093250 75 324 1.7 12.2 0.00 0.00 0.00 74 1021.3
20240614092750 75 298 11.3 11.3 0.00 0.00 0.00 74 1021.0
20240614092249 75 301 5.2 8.7 0.00 0.00 0.00 74 1021.0
20240614091749 75 4 5.2 9.6 0.00 0.00 0.00 74 1020.8
20240614091247 75 357 3.5 7.8 0.00 0.00 0.00 74 1020.7
20240614090745 75 334 2.6 8.7 0.00 0.00 0.00 74 1020.7
20240614090243 75 321 3.5 7.8 0.00 0.00 0.00 74 1020.4
20240614085743 75 348 5.2 8.7 0.00 0.00 0.00 74 1020.3
20240614085242 74 292 7.0 7.8 0.00 0.00 0.00 74 1020.7
20240614084740 74 270 6.1 10.4 0.00 0.00 0.00 74 1020.6
20240614084238 74 272 5.2 7.8 0.00 0.00 0.00 74 1020.7
20240614083737 74 284 3.5 5.2 0.00 0.00 0.00 74 1020.1
20240614083237 73 275 4.3 6.1 0.00 0.00 0.00 74 1020.3
20240614082736 73 266 5.2 5.2 0.00 0.00 0.00 74 1020.7
20240614082235 73 254 1.7 4.3 0.00 0.00 0.00 74 1020.3
20240614081733 73 252 3.5 4.3 0.00 0.00 0.00 74 1019.9
20240614081232 73 307 1.7 3.5 0.00 0.00 0.00 74 1019.8
20240614080731 73 290 1.7 2.6 0.00 0.00 0.00 74 1020.3
20240614080229 72 230 2.6 4.3 0.00 0.00 0.00 74 1020.1
20240614075729 73 270 0.0 2.6 0.00 0.00 0.00 74 1020.4
20240614075229 73 274 2.6 2.6 0.00 0.00 0.00 74 1020.2
20240614074728 73 328 1.7 1.7 0.00 0.00 0.00 74 1020.5
20240614074227 73 40 1.7 1.7 0.00 0.00 0.00 74 1020.4
20240614073726 73 74 0.9 0.9 0.00 0.00 0.00 74 1020.2
20240614073225 73 270 0.0 0.0 0.00 0.00 0.00 74 1020.2
20240614072723 73 270 0.0 0.0 0.00 0.00 0.00 74 1020.4
20240614072222 73 81 0.0 1.7 0.00 0.00 0.00 74 1020.2
20240614071721 72 90 1.7 1.7 0.00 0.00 0.00 74 1020.1
20240614071218 73 0 0.0 0.9 0.00 0.00 0.00 74 1020.0
20240614070716 73 300 0.9 1.7 0.00 0.00 0.00 74 1020.1
20240614070215 73 248 1.7 2.6 0.00 0.00 0.00 74 1020.2
20240614065714 74 261 2.6 3.5 0.00 0.00 0.00 74 1020.1
20240614065212 73 123 0.0 1.7 0.00 0.00 0.00 74 1020.2
20240614064711 73 90 0.0 0.9 0.00 0.00 0.00 74 1020.1
20240614064210 73 229 0.0 0.0 0.00 0.00 0.00 74 1020.1
20240614063708 73 229 0.0 0.0 0.00 0.00 0.00 74 1019.9
20240614063207 73 229 0.0 0.0 0.00 0.00 0.00 74 1019.9
20240614062706 73 229 0.0 0.0 0.00 0.00 0.00 74 1019.8
20240614062205 73 229 0.0 1.7 0.00 0.00 0.00 74 1019.6
20240614061703 73 251 1.7 1.7 0.00 0.00 0.00 74 1019.6
20240614061202 74 257 1.7 2.6 0.00 0.00 0.00 74 1019.6
20240614060700 73 261 1.7 2.6 0.00 0.00 0.00 74 1019.7
20240614060200 74 241 1.7 3.5 0.00 0.00 0.00 74 1019.8
20240614055659 74 254 2.6 3.5 0.00 0.00 0.00 74 1019.6
20240614055157 74 260 1.7 2.6 0.00 0.00 0.00 74 1019.7
20240614054657 74 262 0.0 0.9 0.00 0.00 0.00 74 1019.8
20240614054156 74 264 0.9 1.7 0.00 0.00 0.00 74 1019.7
20240614053654 75 258 1.7 1.7 0.00 0.00 0.00 74 1019.7
20240614053153 75 254 0.0 0.0 0.00 0.00 0.00 74 1019.7
20240614052650 74 352 0.0 0.0 0.00 0.00 0.00 74 1019.6
20240614052149 74 265 0.0 1.7 0.00 0.00 0.00 74 1019.5
20240614051646 74 297 0.9 1.7 0.00 0.00 0.00 74 1019.5
20240614051145 75 246 0.0 1.7 0.00 0.00 0.00 74 1019.5
20240614050643 75 264 0.0 2.6 0.00 0.00 0.00 74 1019.5
20240614050143 75 165 0.0 3.5 0.00 0.00 0.00 74 1019.3
20240614045642 75 255 1.7 3.5 0.00 0.00 0.00 74 1019.2
20240614045141 75 255 0.0 2.6 0.00 0.00 0.00 74 1019.1
20240614044639 75 257 0.9 3.5 0.00 0.00 0.00 74 1018.7
20240614044138 75 265 0.0 4.3 0.00 0.00 0.00 74 1018.5
20240614043636 75 201 4.3 5.2 0.00 0.00 0.00 74 1018.4
20240614043135 75 203 3.5 4.3 0.00 0.00 0.00 74 1018.4
20240614042631 76 212 5.2 5.2 0.00 0.00 0.00 74 1018.5
20240614042130 76 206 1.7 5.2 0.00 0.00 0.00 74 1018.3
20240614041628 76 165 1.7 4.3 0.00 0.00 0.00 75 1018.3
20240614041128 76 200 4.3 4.3 0.00 0.00 0.00 74 1018.2
20240614040628 76 206 2.6 4.3 0.00 0.00 0.00 75 1018.3
20240614040127 76 204 1.7 3.5 0.00 0.00 0.00 75 1018.5
20240614035626 76 203 3.5 3.5 0.00 0.00 0.00 75 1018.2
20240614035126 77 209 0.9 2.6 0.00 0.00 0.00 75 1018.5
20240614034625 77 215 0.0 1.7 0.00 0.00 0.00 75 1018.4
20240614034125 77 212 0.0 5.2 0.00 0.00 0.00 75 1018.1
20240614033624 77 180 0.0 3.5 0.00 0.00 0.00 75 1018.0
20240614033123 77 197 2.6 4.3 0.00 0.00 0.00 75 1018.0
20240614032621 77 248 1.7 3.5 0.00 0.00 0.00 75 1018.1
20240614032118 77 161 1.7 3.5 0.00 0.00 0.00 75 1017.9
20240614031617 77 222 2.6 4.3 0.00 0.00 0.00 75 1017.8
20240614031117 78 200 2.6 4.3 0.00 0.00 0.00 75 1017.5
20240614030615 78 209 0.0 4.3 0.00 0.00 0.00 75 1017.4
20240614030114 78 162 0.9 6.1 0.00 0.00 0.00 75 1017.5
20240614025613 78 199 3.5 5.2 0.00 0.00 0.00 75 1017.3
20240614025112 78 146 2.6 3.5 0.00 0.00 0.00 75 1017.2
20240614024611 78 201 4.3 5.2 0.00 0.00 0.00 75 1017.0
20240614024110 78 200 5.2 5.2 0.00 0.00 0.00 75 1017.1
20240614023609 78 202 4.3 6.1 0.00 0.00 0.00 75 1017.0
20240614023106 78 202 4.3 6.1 0.00 0.00 0.00 75 1016.8
20240614022604 78 200 3.5 4.3 0.00 0.00 0.00 75 1016.8
20240614022103 78 213 5.2 5.2 0.00 0.00 0.00 75 1016.6
20240614021600 78 200 2.6 4.3 0.00 0.00 0.00 75 1016.7
20240614021100 79 202 4.3 5.2 0.00 0.00 0.00 75 1016.5
20240614020558 79 196 2.6 4.3 0.00 0.00 0.00 75 1016.7
20240614020059 79 174 3.5 5.2 0.00 0.00 0.00 75 1016.7
20240614015558 79 156 3.5 6.1 0.00 0.00 0.00 75 1016.6
20240614015057 80 200 0.9 4.3 0.00 0.00 0.00 75 1016.8
20240614014556 80 170 2.6 4.3 0.00 0.00 0.00 75 1016.5
20240614014054 80 152 2.6 4.3 0.00 0.00 0.00 75 1016.8
20240614013553 80 182 2.6 4.3 0.00 0.00 0.00 75 1016.7
20240614013052 80 169 2.6 3.5 0.00 0.00 0.00 75 1016.8
20240614012551 81 165 2.6 4.3 0.00 0.00 0.00 75 1016.8
20240614012051 81 155 4.3 5.2 0.00 0.00 0.00 75 1016.8
20240614011549 81 163 1.7 4.3 0.00 0.00 0.00 75 1016.8
20240614011048 82 173 3.5 5.2 0.00 0.00 0.00 75 1016.6
20240614010547 82 198 3.5 6.1 0.00 0.00 0.00 75 1016.6
20240614010046 83 195 1.7 3.5 0.00 0.00 0.00 75 1017.1
20240614005546 83 155 2.6 4.3 0.00 0.00 0.00 75 1016.9
20240614005045 84 166 2.6 3.5 0.00 0.00 0.00 75 1016.9
20240614004543 84 171 3.5 6.1 0.00 0.00 0.00 75 1017.0
20240614004041 84 143 1.7 4.3 0.00 0.00 0.00 76 1016.8
20240614003540 84 196 3.5 6.1 0.00 0.00 0.00 76 1017.0
20240614003039 84 156 1.7 6.1 0.00 0.00 0.00 76 1017.2
20240614002537 85 159 3.5 6.1 0.00 0.00 0.00 76 1017.1
20240614002037 85 194 5.2 7.0 0.00 0.00 0.00 76 1017.1
20240614001535 85 193 5.2 6.1 0.00 0.00 0.00 76 1017.3
20240614001033 85 192 3.5 6.1 0.00 0.00 0.00 76 1017.5
20240614000532 85 170 2.6 7.0 0.00 0.00 0.00 76 1017.4
20240614000032 85 196 6.1 6.1 0.00 0.00 0.00 76 1017.5
20240613235530 85 191 4.3 7.8 0.00 0.00 0.00 76 1017.6
20240613235028 86 157 2.6 6.1 0.00 0.00 0.00 76 1017.5
20240613234526 86 192 6.1 7.8 0.00 0.00 0.00 76 1017.5
20240613234024 86 190 2.6 9.6 0.00 0.00 0.00 76 1017.4
20240613233522 86 164 1.7 6.1 0.00 0.00 0.00 76 1017.5
20240613233021 87 173 0.9 5.2 0.00 0.00 0.00 76 1017.5
20240613232521 86 160 4.3 7.0 0.00 0.00 0.00 76 1017.9
20240613232020 86 196 5.2 7.8 0.00 0.00 0.00 76 1017.7
20240613231520 87 254 4.3 7.8 0.00 0.00 0.00 76 1017.7
20240613231019 86 184 3.5 6.1 0.00 0.00 0.00 76 1017.6
20240613230518 87 229 4.3 5.2 0.00 0.00 0.00 76 1017.7
20240613230017 87 183 6.1 7.8 0.00 0.00 0.00 76 1017.6
20240613225514 87 203 3.5 7.8 0.00 0.00 0.00 76 1017.7
20240613225013 87 196 6.1 7.8 0.00 0.00 0.00 76 1017.7
20240613224509 87 197 4.3 6.1 0.00 0.00 0.00 76 1017.7
20240613223941 87 166 6.1 7.0 0.00 0.00 0.00 76 1017.7
20240613223440 87 198 5.2 8.7 0.00 0.00 0.00 76 1017.7
20240613222939 87 242 5.2 7.8 0.00 0.00 0.00 76 1017.7
20240613222438 87 158 1.7 6.1 0.00 0.00 0.00 76 1017.9
20240613221937 87 157 5.2 10.4 0.00 0.00 0.00 76 1017.8
20240613221435 87 169 2.6 7.8 0.00 0.00 0.00 76 1018.0
20240613220935 87 180 3.5 7.8 0.00 0.00 0.00 76 1017.7
20240613220433 87 222 4.3 8.7 0.00 0.00 0.00 76 1017.9
20240613215929 87 162 2.6 6.1 0.00 0.00 0.00 76 1018.0
20240613215429 87 196 2.6 7.0 0.00 0.00 0.00 76 1018.0
20240613214928 86 192 6.1 8.7 0.00 0.00 0.00 76 1018.0
20240613214427 86 222 8.7 9.6 0.00 0.00 0.00 76 1017.9
20240613213925 87 199 8.7 11.3 0.00 0.00 0.00 76 1017.9
20240613213423 87 170 2.6 6.1 0.00 0.00 0.00 76 1018.0
20240613212924 87 206 5.2 10.4 0.00 0.00 0.00 76 1017.9
20240613212422 87 200 5.2 13.0 0.00 0.00 0.00 76 1018.0
20240613211920 87 240 4.3 13.0 0.00 0.00 0.00 76 1017.8
20240613211419 87 197 1.7 9.6 0.00 0.00 0.00 76 1018.0
20240613210919 88 198 7.0 7.8 0.00 0.00 0.00 76 1018.1
20240613210419 89 294 0.9 7.8 0.00 0.00 0.00 76 1018.2
20240613205917 88 166 0.0 7.0 0.00 0.00 0.00 76 1018.1
20240613205416 88 256 5.2 9.6 0.00 0.00 0.00 76 1018.3
20240613204916 87 155 2.6 6.1 0.00 0.00 0.00 76 1018.1
20240613204415 87 142 7.0 7.8 0.00 0.00 0.00 76 1018.4
20240613203916 86 199 4.3 9.6 0.00 0.00 0.00 76 1018.4
20240613203414 87 208 6.1 8.7 0.00 0.00 0.00 76 1018.4
20240613202913 86 198 6.1 8.7 0.00 0.00 0.00 76 1018.5
20240613202411 87 192 4.3 7.8 0.00 0.00 0.00 76 1018.6
20240613201910 86 172 0.0 7.8 0.00 0.00 0.00 76 1018.3
20240613201409 86 179 4.3 7.8 0.00 0.00 0.00 76 1018.4
20240613200907 86 193 4.3 6.1 0.00 0.00 0.00 76 1018.4
20240613200406 87 248 2.6 7.0 0.00 0.00 0.00 76 1018.5
20240613195905 86 216 3.5 5.2 0.00 0.00 0.00 76 1018.7
20240613195405 86 250 6.1 9.6 0.00 0.00 0.00 76 1018.6
20240613194903 86 216 5.2 11.3 0.00 0.00 0.00 76 1018.7
20240613194401 87 212 2.6 6.1 0.00 0.00 0.00 76 1018.6
20240613193900 87 240 4.3 7.8 0.00 0.00 0.00 76 1018.8
20240613193400 87 247 6.1 8.7 0.00 0.00 0.00 76 1018.7
20240613192857 87 220 2.6 7.0 0.00 0.00 0.00 76 1018.7
20240613192357 87 223 5.2 7.0 0.00 0.00 0.00 76 1018.8
20240613191855 87 205 3.5 7.8 0.00 0.00 0.00 76 1019.1
20240613191354 86 170 3.5 7.8 0.00 0.00 0.00 76 1019.1
20240613190853 86 210 2.6 6.1 0.00 0.00 0.00 76 1018.9
20240613190351 85 245 7.0 10.4 0.00 0.00 0.00 76 1019.2
20240613185850 86 205 6.1 6.1 0.00 0.00 0.00 76 1019.1
20240613185348 85 198 4.3 7.8 0.00 0.00 0.00 76 1019.1
20240613184847 85 181 4.3 7.0 0.00 0.00 0.00 76 1019.3
20240613184345 84 197 4.3 10.4 0.00 0.00 0.00 76 1019.2
20240613183844 85 243 5.2 7.0 0.00 0.00 0.00 76 1019.3
20240613183343 85 253 6.1 10.4 0.00 0.00 0.00 76 1019.5
20240613182842 85 201 5.2 7.0 0.00 0.00 0.00 76 1019.4
20240613182341 84 168 1.7 5.2 0.00 0.00 0.00 76 1019.4
20240613181838 84 204 6.1 7.8 0.00 0.00 0.00 76 1019.6
20240613181336 84 201 7.0 7.8 0.00 0.00 0.00 76 1019.7
20240613180835 84 195 1.7 7.8 0.00 0.00 0.00 76 1019.4
20240613180333 84 204 1.7 9.6 0.00 0.00 0.00 76 1019.5
20240613175833 84 254 4.3 8.7 0.00 0.00 0.00 75 1019.5
20240613175332 85 180 2.6 7.8 0.00 0.00 0.00 76 1019.6
20240613174831 85 206 7.8 9.6 0.00 0.00 0.00 76 1019.6
20240613174330 83 195 1.7 7.0 0.00 0.00 0.00 75 1019.6
20240613173829 84 206 8.7 8.7 0.00 0.00 0.00 76 1019.5
20240613173327 83 197 5.2 7.0 0.00 0.00 0.00 75 1019.7
20240613172827 84 270 4.3 8.7 0.00 0.00 0.00 76 1019.7
20240613172326 84 266 2.6 4.3 0.00 0.00 0.00 75 1019.7
20240613171825 83 201 1.7 8.7 0.00 0.00 0.00 75 1019.8
20240613171324 84 168 3.5 7.8 0.00 0.00 0.00 76 1019.6
20240613170824 83 203 2.6 8.7 0.00 0.00 0.00 75 1019.7
20240613170324 82 198 5.2 8.7 0.00 0.00 0.00 75 1019.7
20240613165823 82 191 3.5 8.7 0.00 0.00 0.00 75 1019.6
20240613165321 83 219 3.5 6.1 0.00 0.00 0.00 75 1019.4
20240613164819 84 243 0.9 6.1 0.00 0.00 0.00 76 1019.6
20240613164317 83 168 0.0 8.7 0.00 0.00 0.00 75 1019.4
20240613163815 83 209 2.6 3.5 0.00 0.00 0.00 75 1019.4
20240613163315 83 236 2.6 8.7 0.00 0.00 0.00 75 1019.7
20240613162813 82 239 8.7 9.6 0.00 0.00 0.00 75 1019.8
20240613162312 82 257 7.0 7.0 0.00 0.00 0.00 75 1019.9
20240613161812 82 231 5.2 6.1 0.00 0.00 0.00 75 1019.7
20240613161311 82 239 5.2 9.6 0.00 0.00 0.00 75 1019.6
20240613160810 82 226 4.3 7.8 0.00 0.00 0.00 75 1019.9
20240613160309 82 266 2.6 8.7 0.00 0.00 0.00 75 1019.6
20240613155808 82 198 3.5 5.2 0.00 0.00 0.00 75 1019.8
20240613155307 82 221 4.3 7.8 0.00 0.00 0.00 75 1019.7
20240613154805 82 205 2.6 4.3 0.00 0.00 0.00 75 1019.6
20240613154303 81 197 6.1 6.1 0.00 0.00 0.00 75 1019.7
20240613153803 81 195 3.5 8.7 0.00 0.00 0.00 75 1019.5
20240613153302 82 199 2.6 4.3 0.00 0.00 0.00 75 1019.7
20240613152802 81 239 2.6 5.2 0.00 0.00 0.00 75 1019.9
20240613152306 80 228 6.1 7.8 0.00 0.00 0.00 75 1019.9
20240613151800 81 217 2.6 7.0 0.00 0.00 0.00 75 1019.8
20240613151258 81 211 2.6 4.3 0.00 0.00 0.00 75 1019.9
20240613150756 81 197 2.6 4.3 0.00 0.00 0.00 75 1019.7
20240613150253 80 267 3.5 4.3 0.00 0.00 0.00 75 1019.7
20240613145752 80 215 2.6 3.5 0.00 0.00 0.00 75 1019.8
20240613145250 79 230 6.1 7.0 0.00 0.00 0.00 75 1019.8
20240613144750 79 184 3.5 5.2 0.00 0.00 0.00 75 1020.0
20240613144249 80 194 2.6 3.5 0.00 0.00 0.00 75 1019.9
20240613143749 79 192 3.5 4.3 0.00 0.00 0.00 75 1019.8
20240613143248 79 248 0.0 2.6 0.00 0.00 0.00 75 1019.9
20240613142747 79 238 2.6 3.5 0.00 0.00 0.00 75 1019.8
20240613142245 78 186 0.0 4.3 0.00 0.00 0.00 75 1019.9
20240613141744 77 195 4.3 4.3 0.00 0.00 0.00 75 1019.9
20240613141241 77 253 2.6 6.1 0.00 0.00 0.00 75 1020.0
20240613140740 77 203 0.9 4.3 0.00 0.00 0.00 75 1020.1
20240613140238 77 120 0.0 3.5 0.00 0.00 0.00 75 1019.8
20240613135737 76 198 0.0 7.0 0.00 0.00 0.00 75 1019.7
20240613135235 77 208 2.6 3.5 0.00 0.00 0.00 75 1019.9
20240613134734 76 206 4.3 4.3 0.00 0.00 0.00 75 1019.7
20240613134233 76 203 0.0 3.5 0.00 0.00 0.00 75 1019.9
20240613133732 76 225 2.6 4.3 0.00 0.00 0.00 75 1019.7
20240613133232 75 156 1.7 4.3 0.00 0.00 0.00 74 1019.8
20240613132731 75 222 2.6 3.5 0.00 0.00 0.00 74 1019.8
20240613132231 74 206 1.7 2.6 0.00 0.00 0.00 74 1019.6